Hourly Weather Alipino

Today, 30 November, Monday

Time Temperature Precipitation Wind Pressure Humidity
00:00 +1°C° 0.2 mm 3 mps 755 mmHg 97%
01:00 +1°C° 0.2 mm 3 mps 755 mmHg 97%
02:00 0°C° 0 mm 3 mps 755 mmHg 96%
03:00 0°C° 0 mm 3 mps 755 mmHg 94%
04:00 -1°C° 0 mm 3 mps 755 mmHg 92%
05:00 -2°C° 0 mm 2 mps 755 mmHg 90%
06:00 -2°C° 0 mm 3 mps 755 mmHg 90%
07:00 -4°C° 0 mm 3 mps 755 mmHg 91%
08:00 -4°C° 0 mm 3 mps 756 mmHg 91%
09:00 -4°C° 0 mm 3 mps 756 mmHg 89%
10:00 -2°C° 0 mm 3 mps 756 mmHg 87%
11:00 -2°C° 0 mm 3 mps 756 mmHg 86%
12:00 -2°C° 0 mm 3 mps 756 mmHg 84%
13:00 -2°C° 0 mm 3 mps 756 mmHg 82%
14:00 -1°C° 0 mm 3 mps 755 mmHg 81%
15:00 -2°C° 0 mm 3 mps 755 mmHg 82%
16:00 -2°C° 0 mm 3 mps 755 mmHg 82%
17:00 -2°C° 0 mm 3 mps 755 mmHg 83%
18:00 -2°C° 0 mm 3 mps 755 mmHg 85%
19:00 -3°C° 0 mm 4 mps 755 mmHg 88%
20:00 -3°C° 0 mm 4 mps 755 mmHg 90%
21:00 -3°C° 0 mm 4 mps 756 mmHg 89%
22:00 -3°C° 0 mm 4 mps 756 mmHg 89%
23:00 -3°C° 0 mm 4 mps 756 mmHg 88%

Tomorrow, 1 December, Tuesday

Time Temperature Precipitation Wind Pressure Humidity
00:00 -3°C° 0 mm 4 mps 756 mmHg 87%
01:00 -3°C° 0 mm 4 mps 756 mmHg 86%
02:00 -3°C° 0 mm 4 mps 757 mmHg 85%
03:00 -4°C° 0 mm 4 mps 757 mmHg 86%
04:00 -4°C° 0 mm 4 mps 757 mmHg 87%
05:00 -4°C° 0 mm 4 mps 757 mmHg 88%
06:00 -4°C° 0 mm 4 mps 758 mmHg 87%
07:00 -3°C° 0 mm 4 mps 758 mmHg 86%
08:00 -2°C° 0 mm 3 mps 759 mmHg 85%
09:00 -2°C° 0 mm 3 mps 759 mmHg 85%
10:00 -2°C° 0 mm 3 mps 759 mmHg 85%
11:00 -2°C° 0 mm 3 mps 759 mmHg 85%
12:00 -2°C° 0 mm 3 mps 760 mmHg 85%
13:00 -2°C° 0 mm 3 mps 760 mmHg 85%
14:00 -2°C° 0 mm 3 mps 760 mmHg 86%
15:00 -2°C° 0 mm 3 mps 761 mmHg 86%
16:00 -2°C° 0 mm 3 mps 761 mmHg 86%
17:00 -2°C° 0 mm 3 mps 761 mmHg 87%
18:00 -2°C° 0 mm 3 mps 761 mmHg 86%
19:00 -2°C° 0 mm 3 mps 762 mmHg 86%
20:00 -2°C° 0 mm 3 mps 762 mmHg 85%
21:00 -4°C° 0 mm 3 mps 762 mmHg 86%
22:00 -4°C° 0 mm 3 mps 763 mmHg 87%
23:00 -3°C° 0 mm 2 mps 763 mmHg 88%

Day after tomorrow, 2 December, Wednesday

Time Temperature Precipitation Wind Pressure Humidity
00:00 -4°C° 0 mm 2 mps 763 mmHg 88%
01:00 -4°C° 0 mm 2 mps 763 mmHg 88%
02:00 -4°C° 0 mm 2 mps 764 mmHg 89%
03:00 -4°C° 0 mm 2 mps 763 mmHg 88%
04:00 -4°C° 0 mm 2 mps 763 mmHg 88%
05:00 -4°C° 0 mm 2 mps 763 mmHg 87%
06:00 -4°C° 0 mm 2 mps 763 mmHg 87%
07:00 -4°C° 0 mm 2 mps 763 mmHg 86%
08:00 -4°C° 0 mm 2 mps 763 mmHg 86%
09:00 -4°C° 0 mm 2 mps 763 mmHg 84%
10:00 -4°C° 0 mm 2 mps 764 mmHg 82%
11:00 -4°C° 0 mm 2 mps 764 mmHg 80%
12:00 -1°C° 0 mm 1 mps 763 mmHg 80%
13:00 -1°C° 0 mm 1 mps 763 mmHg 80%
14:00 -1°C° 0 mm 1 mps 763 mmHg 80%
15:00 -1°C° 0 mm 1 mps 763 mmHg 83%
16:00 -2°C° 0 mm 1 mps 763 mmHg 85%
17:00 -2°C° 0 mm 1 mps 762 mmHg 88%
18:00 -2°C° 0 mm 1 mps 762 mmHg 88%
19:00 -2°C° 0 mm 1 mps 762 mmHg 88%
20:00 -5°C° 0 mm 2 mps 762 mmHg 87%
21:00 -5°C° 0 mm 2 mps 762 mmHg 89%
22:00 -5°C° 0 mm 2 mps 762 mmHg 90%
23:00 -5°C° 0 mm 2 mps 761 mmHg 91%

3 December, Thursday

Time Temperature Precipitation Wind Pressure Humidity
00:00 -4°C° 0 mm 2 mps 761 mmHg 92%
01:00 -4°C° 0 mm 2 mps 761 mmHg 93%
02:00 -4°C° 0 mm 2 mps 761 mmHg 94%
03:00 -4°C° 0 mm 2 mps 760 mmHg 92%
04:00 -4°C° 0 mm 2 mps 760 mmHg 91%
05:00 -4°C° 0 mm 2 mps 759 mmHg 89%
06:00 -4°C° 0 mm 2 mps 759 mmHg 90%
07:00 -5°C° 0 mm 2 mps 759 mmHg 90%
08:00 -5°C° 0 mm 2 mps 759 mmHg 91%
09:00 -6°C° 0 mm 3 mps 759 mmHg 89%
10:00 -6°C° 0 mm 3 mps 759 mmHg 86%
11:00 -6°C° 0 mm 3 mps 758 mmHg 84%
12:00 -5°C° 0 mm 3 mps 758 mmHg 84%
13:00 -5°C° 0 mm 3 mps 758 mmHg 83%
14:00 -5°C° 0 mm 3 mps 758 mmHg 83%
15:00 -5°C° 0 mm 3 mps 758 mmHg 85%
16:00 -5°C° 0 mm 3 mps 757 mmHg 86%
17:00 -5°C° 0 mm 3 mps 757 mmHg 88%
18:00 -5°C° 0 mm 3 mps 757 mmHg 86%
19:00 -5°C° 0 mm 3 mps 757 mmHg 85%
20:00 -4°C° 0 mm 3 mps 757 mmHg 84%
21:00 -4°C° 0 mm 3 mps 757 mmHg 84%
22:00 -4°C° 0 mm 3 mps 757 mmHg 84%
23:00 -4°C° 0 mm 3 mps 757 mmHg 84%

4 December, Friday

Time Temperature Precipitation Wind Pressure Humidity
00:00 -4°C° 0 mm 3 mps 757 mmHg 84%
01:00 -4°C° 0 mm 3 mps 757 mmHg 84%
02:00 -4°C° 0 mm 3 mps 757 mmHg 84%
03:00 -4°C° 0 mm 3 mps 757 mmHg 85%
04:00 -5°C° 0 mm 3 mps 757 mmHg 87%
05:00 -5°C° 0 mm 3 mps 757 mmHg 89%
06:00 -5°C° 0 mm 3 mps 757 mmHg 88%
07:00 -4°C° 0 mm 3 mps 757 mmHg 87%
08:00 -4°C° 0 mm 4 mps 757 mmHg 86%
09:00 -4°C° 0 mm 4 mps 757 mmHg 85%
10:00 -4°C° 0 mm 4 mps 757 mmHg 85%
11:00 -3°C° 0 mm 4 mps 757 mmHg 84%
12:00 -3°C° 0 mm 4 mps 757 mmHg 85%
13:00 -2°C° 0 mm 3 mps 757 mmHg 85%
14:00 -1°C° 0 mm 3 mps 756 mmHg 86%
15:00 -1°C° 0 mm 3 mps 756 mmHg 86%
16:00 -2°C° 0 mm 4 mps 756 mmHg 87%
17:00 -2°C° 0 mm 4 mps 756 mmHg 87%
18:00 -2°C° 0 mm 4 mps 756 mmHg 87%
19:00 -2°C° 0 mm 4 mps 756 mmHg 87%
20:00 -2°C° 0 mm 4 mps 756 mmHg 86%
21:00 -2°C° 0 mm 4 mps 756 mmHg 86%
22:00 -1°C° 0 mm 4 mps 756 mmHg 86%
23:00 -1°C° 0 mm 4 mps 756 mmHg 87%

5 December, Saturday

Time Temperature Precipitation Wind Pressure Humidity
00:00 -1°C° 0 mm 4 mps 756 mmHg 86%
01:00 -1°C° 0 mm 4 mps 756 mmHg 86%
02:00 -1°C° 0 mm 4 mps 756 mmHg 86%
03:00 -1°C° 0 mm 5 mps 756 mmHg 86%
04:00 -1°C° 0 mm 5 mps 756 mmHg 86%
05:00 -2°C° 0 mm 5 mps 755 mmHg 86%
06:00 -2°C° 0 mm 5 mps 755 mmHg 86%
07:00 -2°C° 0 mm 5 mps 755 mmHg 86%
08:00 -2°C° 0 mm 5 mps 755 mmHg 86%
09:00 -2°C° 0 mm 5 mps 756 mmHg 85%
10:00 -1°C° 0 mm 4 mps 756 mmHg 84%
11:00 -1°C° 0 mm 4 mps 756 mmHg 84%
12:00 -1°C° 0 mm 4 mps 756 mmHg 83%
13:00 -1°C° 0 mm 4 mps 756 mmHg 83%
14:00 -1°C° 0 mm 4 mps 755 mmHg 83%
15:00 -1°C° 0 mm 4 mps 755 mmHg 83%
16:00 -1°C° 0 mm 4 mps 755 mmHg 84%
17:00 -1°C° 0 mm 4 mps 755 mmHg 84%
18:00 -1°C° 0 mm 4 mps 755 mmHg 85%
19:00 -1°C° 0 mm 4 mps 755 mmHg 86%
20:00 -1°C° 0 mm 4 mps 755 mmHg 87%
21:00 -1°C° 0 mm 4 mps 756 mmHg 88%
22:00 -1°C° 0 mm 4 mps 756 mmHg 88%
23:00 -1°C° 0 mm 4 mps 756 mmHg 88%
Show more